This is the latest recevied weather packets stored in our database for station/object K1RFS. If no packets are shown the sender has not sent any weather packets the latest 10 day(s).
| Time | Temp. | Humidity | Pressure | Rain* | Wind** | Luminosity | Snow |
|---|---|---|---|---|---|---|---|
| 1788473877 | 30° C | 12% | 998 hPa | 0 mm | - | 420 W/m² | - |
| 1788473575 | 30° C | 12% | 997.8 hPa | 0 mm | - | 429 W/m² | - |
| 1788473274 | 30.56° C | 13% | 998 hPa | 0 mm | - | 439 W/m² | - |
| 1788472969 | 30.56° C | 12% | 998.1 hPa | 0 mm | - | 450 W/m² | - |
| 1788472667 | 30.56° C | 13% | 998.1 hPa | 0 mm | - | 458 W/m² | - |
| 1788472364 | 30.56° C | 13% | 997.8 hPa | 0 mm | - | 469 W/m² | - |
| 1788472061 | 31.11° C | 12% | 998 hPa | 0 mm | - | 477 W/m² | - |
| 1788471758 | 30.56° C | 12% | 997.7 hPa | 0 mm | - | 484 W/m² | - |
| 1788471452 | 30° C | 13% | 998.1 hPa | 0 mm | - | 495 W/m² | - |
| 1788471148 | 30.56° C | 12% | 998.1 hPa | 0 mm | - | 507 W/m² | - |
| 1788470844 | 30.56° C | 12% | 998.2 hPa | 0 mm | - | 514 W/m² | - |
| 1788470540 | 31.11° C | 12% | 998.2 hPa | 0 mm | - | 517 W/m² | - |
| 1788470239 | 30.56° C | 13% | 998.3 hPa | 0 mm | - | 523 W/m² | - |
| 1788469936 | 30.56° C | 13% | 998.3 hPa | 0 mm | - | 529 W/m² | - |
| 1788469632 | 30.56° C | 13% | 998.2 hPa | 0 mm | - | 536 W/m² | - |
| 1788469327 | 30° C | 13% | 998.3 hPa | 0 mm | - | 544 W/m² | - |
| 1788469026 | 29.44° C | 13% | 998.8 hPa | 0 mm | - | 548 W/m² | - |
| 1788468725 | 30° C | 13% | 998.5 hPa | 0 mm | - | 552 W/m² | - |
| 1788468421 | 29.44° C | 12% | 999 hPa | 0 mm | - | 556 W/m² | - |
| 1788468118 | 29.44° C | 12% | 998.8 hPa | 0 mm | - | 561 W/m² | - |
| 1788467813 | 29.44° C | 13% | 998.8 hPa | 0 mm | - | 569 W/m² | - |
| 1788467508 | 29.44° C | 13% | 999 hPa | 0 mm | - | 572 W/m² | - |
| 1788467202 | 29.44° C | 14% | 999 hPa | 0 mm | - | 574 W/m² | - |
| 1788466899 | 28.89° C | 13% | 998.9 hPa | 0 mm | - | 579 W/m² | - |
| 1788466598 | 28.89° C | 13% | 999.3 hPa | 0 mm | - | 582 W/m² | - |
* Rain latest hour (hover to see other rain measurements)
** Current wind speed in m/s (hover to see current wind gust speed)